Overall — Coyote Run - Mini
Saturday 2 September 2023 · 68 finishers across every class · 3 laps for the winner
| Pos | No. | Rider | Class | Laps | Time | Behind | Int | Pace |
|---|---|---|---|---|---|---|---|---|
| 1 | #51A | SMITH, JAYTIN | SM 14-15 | 3 | 1:03:04 | — | 0:00 | 21:01 |
| 2 | #5A | WESTON, BODIE | SM 14-15 | 3 | 1:03:39 | +0:35 | 0:35 | 21:13 |
| 3 | #43B | SMITH, RYAN | SM 12-13 | 3 | 1:04:36 | +1:32 | 0:57 | 21:32 |
| 4 | #13A | AL-AWAM, TORREN | SM 14-15 | 3 | 1:06:06 | +3:02 | 1:30 | 22:02 |
| 5 | #67A | BONANNO, ADIN | SM 14-15 | 3 | 1:07:17 | +4:13 | 1:11 | 22:25 |
| 6 | #18B | EDMONDSON, TUCKER | SM 12-13 | 3 | 1:07:21 | +4:17 | 0:04 | 22:27 |
| 7 | #66A | LOWE, ALBERT | SM 14-15 | 3 | 1:07:32 | +4:28 | 0:11 | 22:30 |
| 8 | #47B | HARRISON, EVAN | SM 12-13 | 3 | 1:07:53 | +4:49 | 0:21 | 22:37 |
| 9 | #99C | CASH, CARSON | MINI 12-13 | 3 | 1:08:25 | +5:21 | 0:32 | 22:48 |
| 10 | #30B | OLEARY, ASHTON | SM 12-13 | 3 | 1:08:34 | +5:30 | 0:09 | 22:51 |
| 11 | #1B | WALTERS, DALTON | SM 12-13 | 3 | 1:08:38 | +5:34 | 0:04 | 22:52 |
| 12 | #25B | HERTZLER, NOAH | SM 12-13 | 3 | 1:09:16 | +6:12 | 0:38 | 23:05 |
| 13 | #42A | SCHLICKENMEYER, SEAN | SM 14-15 | 3 | 1:09:35 | +6:31 | 0:19 | 23:11 |
| 14 | #44B | GEARHART, CADENCE | SM 12-13 | 3 | 1:11:45 | +8:41 | 2:10 | 23:55 |
| 15 | #36A | FULCHER, THOMAS | SM 14-15 | 3 | 1:11:45 | +8:41 | 0:00 | 23:55 |
| 16 | #42D | COLLINS, JAXON | MINI 9-11 | 3 | 1:12:27 | +9:23 | 0:42 | 24:09 |
| 17 | #42C | LACY, JACK | MINI 12-13 | 3 | 1:13:03 | +9:59 | 0:36 | 24:21 |
| 18 | #19C | CAWLEY, MASON | MINI 12-13 | 3 | 1:14:05 | +11:01 | 1:02 | 24:41 |
| 19 | #45B | GREER, CALEB | SM 12-13 | 3 | 1:14:43 | +11:39 | 0:38 | 24:54 |
| 20 | #22B | FOUTZ, KELLEN | SM 12-13 | 3 | 1:14:55 | +11:51 | 0:12 | 24:58 |
| 21 | #23B | JOHNSON, BRADY | SM 12-13 | 3 | 1:15:31 | +12:27 | 0:36 | 25:10 |
| 22 | #21D | WIGGINS, MADDIX | MINI 9-11 | 3 | 1:15:43 | +12:39 | 0:12 | 25:14 |
| 23 | #29B | POFF, PEYTON | SM 12-13 | 3 | 1:15:46 | +12:42 | 0:03 | 25:15 |
| 24 | #20E | JACOBS, PEYTON | SM WOMEN | 3 | 1:17:15 | +14:11 | 1:29 | 25:45 |
| 25 | #22D | BAKER, COHEN | MINI 9-11 | 3 | 1:18:25 | +15:21 | 1:10 | 26:08 |
| 26 | #12K | BURKHOLDER, BRADLEY | MINI 9-11K | 3 | 1:19:08 | +16:04 | 0:43 | 26:22 |
| 27 | #35B | AUSTIN, BRAYDEN | SM 12-13 | 3 | 1:19:47 | +16:43 | 0:39 | 26:35 |
| 28 | #5D | BAKKEN, DASH | MINI 9-11 | 3 | 1:20:00 | +16:56 | 0:13 | 26:40 |
| 29 | #96C | GREER, LOGAN | MINI 12-13 | 3 | 1:24:57 | +21:53 | 4:57 | 28:19 |
| 30 | #12A | SHANNON, PARKER | SM 14-15 | 3 | 1:26:01 | +22:57 | 1:04 | 28:40 |
| 31 | #25K | TORRES, TRISTIN | MINI 9-11K | 3 | 1:26:11 | +23:07 | 0:10 | 28:43 |
| 32 | #50K | JOHNSON, LUCAS | MINI 9-11K | 3 | 1:29:59 | +26:55 | 3:48 | 29:59 |
| 33 | #74C | KNOUSE, ROBERT | MINI 12-13 | 3 | 1:31:31 | +28:27 | 1:32 | 30:30 |
| 34 | #24D | OLEARY, NOLAN | MINI 9-11 | 2 | 51:28 | 1 lap | 0:00 | 25:44 |
| 35 | #17A | POWERS, KARSON | SM 14-15 | 2 | 1:00:03 | 1 lap | 8:35 | 30:01 |
| 36 | #10E | PANCAKE, LILLIAN | SM WOMEN | 2 | 1:00:24 | 1 lap | 0:21 | 30:12 |
| 37 | #26D | LILLY, WYATT | MINI 9-11 | 2 | 1:00:32 | 1 lap | 0:08 | 30:16 |
| 38 | #52B | REYNOLDS, LUCAS | SM 12-13 | 2 | 1:07:02 | 1 lap | 6:30 | 33:31 |
| 39 | #11B | SENTERS, ZEKE | SM 12-13 | 2 | 1:11:34 | 1 lap | 4:32 | 35:47 |
| 40 | #26K | SMITH, HUNTER | MINI 9-11K | 2 | 1:12:23 | 1 lap | 0:49 | 36:11 |
| 41 | #16C | DODD, BENJAMIN | MINI 12-13 | 2 | 1:14:50 | 1 lap | 2:27 | 37:25 |
| 42 | #19E | MCKEITHAN, SAMANTHA | SM WOMEN | 2 | 1:16:53 | 1 lap | 2:03 | 38:26 |
| 43 | #10K | LAMB, BRANTLEY | MINI 9-11K | 2 | 1:18:41 | 1 lap | 1:48 | 39:20 |
| 44 | #14G | RIDDLE, JESSICA | TRL WOMEN | 2 | 1:20:13 | 1 lap | 1:32 | 40:06 |
| 45 | #2E | HARDMAN, SAVANNAH | SM WOMEN | 2 | 1:21:13 | 1 lap | 1:00 | 40:36 |
| 46 | #44K | MASON, HUNTER | MINI 9-11K | 2 | 1:23:24 | 1 lap | 2:11 | 41:42 |
| 47 | #8E | PANCAKE, DELILAH | SM WOMEN | 2 | 1:25:36 | 1 lap | 2:12 | 42:48 |
| 48 | #69D | LILLY, COLE | MINI 9-11 | 2 | 1:26:18 | 1 lap | 0:42 | 43:09 |
| 49 | #4K | MARKHAM, GUNNER | MINI 9-11K | 2 | 1:26:49 | 1 lap | 0:31 | 43:24 |
| 50 | #65D | LILLY, RYDER | MINI 9-11 | 2 | 1:28:46 | 1 lap | 1:57 | 44:23 |
| 51 | #55D | RAFFERTY, LUKE | MINI 9-11 | 2 | 1:34:44 | 1 lap | 5:58 | 47:22 |
| 52 | #18K | PAYNE, DYLAN | MINI 9-11K | 2 | 1:39:09 | 1 lap | 4:25 | 49:34 |
| 53 | #6G | SIMON, AMY | TRL WOMEN | 2 | 1:40:35 | 1 lap | 1:26 | 50:17 |
| 54 | #48E | LANDRUM, KINLEY | SM WOMEN | 2 | 1:40:52 | 1 lap | 0:17 | 50:26 |
| 55 | #4D | KERN, QUENTIN | MINI 9-11 | 1 | 29:47 | 2 laps | 0:00 | 29:47 |
| 56 | #51D | RICE, DANE | MINI 9-11 | 1 | 29:53 | 2 laps | 0:06 | 29:53 |
| 57 | #71A | MATHENA, BRENT | SM 14-15 | 1 | 31:11 | 2 laps | 1:18 | 31:11 |
| 58 | #11E | LOWE, FELICITY | SM WOMEN | 1 | 41:44 | 2 laps | 10:33 | 41:44 |
| 59 | #8K | MUTER, MAX | MINI 9-11K | 1 | 51:25 | 2 laps | 9:41 | 51:25 |
| 60 | #99K | WEST, WALKER | MINI 9-11K | 1 | 51:26 | 2 laps | 0:01 | 51:26 |
| 61 | #7G | GABRIELE, KIMBERLY | TRL WOMEN | 1 | 51:53 | 2 laps | 0:27 | 51:53 |
| 62 | #51K | RICE, HOLTON | MINI 9-11K | 1 | 52:10 | 2 laps | 0:17 | 52:10 |
| 63 | #6K | GOFF, LIAM | MINI 9-11K | 1 | 54:12 | 2 laps | 2:02 | 54:12 |
| 64 | #2K | MEAD, RYLAN | MINI 9-11K | 1 | 55:45 | 2 laps | 1:33 | 55:45 |
| 65 | #29K | PERRY, DYLAN | MINI 9-11K | 1 | 55:46 | 2 laps | 0:01 | 55:46 |
| 66 | #16E | SCHILLUMEIT, SOPHIA | SM WOMEN | 1 | 1:04:20 | 2 laps | 8:34 | 1:04:20 |
| 67 | #27K | LOVE, CONNER | MINI 9-11K | 1 | 1:05:00 | 2 laps | 0:40 | 1:05:00 |
| 68 | #77K | LAMB, BRYSON | MINI 9-11K | 1 | 1:21:48 | 2 laps | 16:48 | 1:21:48 |
Ranked the way the series ranks: most laps first, then least time. Behind is the deficit to the winner and is only shown where the lap count matches, because elapsed time says nothing across different lap counts — a rider a lap down shows the laps instead. Int is the gap to the rider immediately ahead.